FW7500 Weather Reports


time (UTC)temp
C
wind
direction
speed
KPH
gust
KPH
rain 1hr
cm
rain 24hr
cm
rain mn
cm
humidity
%
barometer
mb
20260903010059 27 0 0.0 0.0 0.00 0.00 0.00 77 1017.6
20260903004602 27 0 0.0 0.0 0.00 0.00 0.00 77 1017.5
20260903003102 27 0 0.0 0.0 0.00 0.00 0.00 78 1017.4
20260903001603 28 0 0.0 0.0 0.00 0.00 0.00 74 1017.5
20260903000053 30 0 0.0 0.0 0.00 0.00 0.00 70 1017.5
20260902234606 31 0 0.0 0.0 0.00 0.00 0.00 66 1017.4
20260902233101 31 0 0.0 0.0 0.00 0.00 0.00 63 1017.6
20260902231609 32 0 0.0 0.0 0.00 0.00 0.00 60 1017.6
20260902230053 32 0 0.0 0.0 0.00 0.00 0.00 59 1017.7
20260902224607 32 0 0.0 0.0 0.00 0.00 0.00 57 1017.7
20260902223058 32 0 0.0 0.0 0.00 0.00 0.00 56 1017.7
20260902221605 33 0 0.0 0.0 0.00 0.00 0.00 55 1017.7
20260902220105 33 0 0.0 0.0 0.00 0.00 0.00 54 1017.9
20260902214604 33 0 0.0 0.0 0.00 0.00 0.00 53 1017.8
20260902213107 33 0 0.0 0.0 0.00 0.00 0.00 52 1017.9
20260902211606 33 0 0.0 0.0 0.00 0.00 0.00 51 1017.9
20260902210105 33 0 0.0 0.0 0.00 0.00 0.00 52 1017.9
20260902204602 33 0 0.0 0.0 0.00 0.00 0.00 52 1018.0
20260902203127 33 0 0.0 0.0 0.00 0.00 0.00 51 1018.1
20260902201613 33 0 0.0 0.0 0.00 0.00 0.00 53 1018.2
20260902200105 33 0 0.0 0.0 0.00 0.00 0.00 55 1018.3
20260902194601 33 0 0.0 0.0 0.00 0.00 0.00 53 1018.6
20260902193133 33 0 0.0 0.0 0.00 0.00 0.00 53 1018.7
20260902191557 33 0 0.0 0.0 0.00 0.00 0.00 52 1018.9
20260902190055 33 0 0.0 0.0 0.00 0.00 0.00 54 1019.0
20260902184603 33 0 0.0 0.0 0.00 0.00 0.00 53 1019.2
20260902183123 33 0 0.0 0.0 0.00 0.00 0.00 51 1019.4
20260902181557 33 0 0.0 0.0 0.00 0.00 0.00 54 1019.3
20260902180054 32 0 0.0 0.0 0.00 0.00 0.00 58 1019.5
20260902174607 33 0 0.0 0.0 0.00 0.00 0.00 54 1019.6
20260902173055 32 0 0.0 0.0 0.00 0.00 0.00 56 1019.6
20260902171607 32 0 0.0 0.0 0.00 0.00 0.00 58 1019.8
20260902170104 32 0 0.0 0.0 0.00 0.00 0.00 57 1019.9
20260902164558 32 0 0.0 0.0 0.00 0.00 0.00 60 1020.0
20260902163112 32 0 0.0 0.0 0.00 0.00 0.00 62 1020.1
20260902161603 32 0 0.0 0.0 0.00 0.00 0.00 59 1020.2
20260902160100 31 0 0.0 0.0 0.00 0.00 0.00 62 1020.4
20260902154554 31 0 0.0 0.0 0.00 0.00 0.00 64 1020.5
20260902153056 31 0 0.0 0.0 0.00 0.00 0.00 66 1020.4
20260902151555 30 0 0.0 0.0 0.00 0.00 0.00 68 1020.3
20260902150101 30 0 0.0 0.0 0.00 0.00 0.00 68 1020.3
20260902144602 29 0 0.0 0.0 0.00 0.00 0.00 71 1020.5
20260902143053 29 0 0.0 0.0 0.00 0.00 0.00 72 1020.5
20260902141552 28 0 0.0 0.0 0.00 0.00 0.00 72 1020.3
20260902140100 28 0 0.0 0.0 0.00 0.00 0.00 74 1020.2
20260902134603 27 0 0.0 0.0 0.00 0.00 0.00 76 1020.2
20260902133108 27 0 0.0 0.0 0.00 0.00 0.00 79 1020.2
20260902131609 26 0 0.0 0.0 0.00 0.00 0.00 81 1020.3
20260902130056 25 0 0.0 0.0 0.00 0.00 0.00 84 1020.2
20260902124554 25 0 0.0 0.0 0.00 0.00 0.00 85 1020.1
20260902123106 23 0 0.0 0.0 0.00 0.00 0.00 88 1019.9
20260902121601 22 0 0.0 0.0 0.00 0.00 0.00 89 1019.8
20260902120107 22 0 0.0 0.0 0.00 0.00 0.00 91 1019.9
20260902114553 21 0 0.0 0.0 0.00 0.00 0.00 93 1019.8
20260902113052 21 0 0.0 0.0 0.00 0.00 0.00 94 1019.6
20260902111604 21 0 0.0 0.0 0.00 0.00 0.00 92 1019.5
20260902110053 21 0 0.0 0.0 0.00 0.00 0.00 92 1019.3
20260902104550 21 0 0.0 0.0 0.00 0.00 0.00 91 1019.2
20260902103105 21 0 0.0 0.0 0.00 0.00 0.00 90 1019.2
20260902101555 22 0 0.0 0.0 0.00 0.00 0.00 89 1019.2
20260902100104 22 0 0.0 0.0 0.00 0.00 0.00 88 1019.1
20260902094554 22 0 0.0 0.0 0.00 0.00 0.00 86 1019.1
20260902093101 23 0 0.0 0.0 0.00 0.00 0.00 86 1019.1
20260902091554 23 0 0.0 0.0 0.00 0.00 0.00 86 1019.0
20260902090055 23 0 0.0 0.0 0.00 0.00 0.00 86 1018.9
20260902084600 23 0 0.0 0.0 0.00 0.00 0.00 85 1018.8
20260902083112 23 0 0.0 0.0 0.00 0.00 0.00 84 1018.7
20260902081557 23 0 0.0 0.0 0.00 0.00 0.00 84 1018.5
20260902080100 23 0 0.0 0.0 0.00 0.00 0.00 84 1018.4
20260902074609 23 0 0.0 0.0 0.00 0.00 0.00 83 1018.5
20260902073057 24 0 0.0 0.0 0.00 0.00 0.00 82 1018.5
20260902071604 24 0 0.0 0.0 0.00 0.00 0.00 82 1018.5
20260902070107 24 0 0.0 0.0 0.00 0.00 0.00 82 1018.5
20260902064554 24 0 0.0 0.0 0.00 0.00 0.00 82 1018.4
20260902063100 24 0 0.0 0.0 0.00 0.00 0.00 82 1018.5
20260902061604 24 0 0.0 0.0 0.00 0.00 0.00 82 1018.5
20260902060053 25 0 0.0 0.0 0.00 0.00 0.00 82 1018.6
20260902054601 25 0 0.0 0.0 0.00 0.00 0.00 82 1018.6
20260902053059 25 0 0.0 0.0 0.00 0.00 0.00 82 1018.7
20260902051559 25 0 0.0 0.0 0.00 0.00 0.00 82 1018.6
20260902044555 25 0 0.0 0.0 0.00 0.00 0.00 83 1018.5
20260902043104 25 0 0.0 0.0 0.00 0.00 0.00 83 1018.6
20260902041554 25 0 0.0 0.0 0.00 0.00 0.00 83 1018.7
20260902040055 25 0 0.0 0.0 0.00 0.00 0.00 83 1018.6
20260902034552 25 0 0.0 0.0 0.00 0.00 0.00 83 1018.6
20260902033056 25 0 0.0 0.0 0.00 0.00 0.00 84 1018.6
20260902031606 25 0 0.0 0.0 0.00 0.00 0.00 85 1018.7
20260902030053 25 0 0.0 0.0 0.00 0.00 0.00 85 1018.6
20260902024558 25 0 0.0 0.0 0.00 0.00 0.00 86 1018.8
20260902023103 25 0 0.0 0.0 0.00 0.00 0.00 84 1018.8
20260902021609 25 0 0.0 0.0 0.00 0.00 0.00 84 1018.7
20260902020107 26 0 0.0 0.0 0.00 0.00 0.00 83 1018.6
20260902014557 25 0 0.0 0.0 0.00 0.00 0.00 84 1018.6
20260902013056 25 0 0.0 0.0 0.00 0.00 0.00 84 1018.6
20260902011554 26 0 0.0 0.0 0.00 0.00 0.00 82 1018.5